| time (UTC) | temp C | wind direction | speed KPH | gust KPH | rain 1hr cm | rain 24hr cm | rain mn cm | humidity % | barometer mb |
| 20260505192240 | 17 | 255 | 14.5 | 22.5 | 0.00 | 0.00 | 0.00 | ||
| 20260505185242 | 17 | 321 | 11.3 | 6.4 | 0.00 | 0.00 | 0.00 | ||
| 20260505183742 | 16 | 280 | 12.9 | 11.3 | 0.00 | 0.00 | 0.00 | ||
| 20260505180744 | 15 | 290 | 8.0 | 1.6 | 0.00 | 0.00 | 0.00 | ||
| 20260505175245 | 15 | 305 | 6.4 | 1.6 | 0.00 | 0.00 | 0.00 | ||
| 20260505173746 | 13 | 271 | 9.7 | 9.7 | 0.00 | 0.00 | 0.00 | ||
| 20260505170748 | 12 | 222 | 6.4 | 3.2 | 0.00 | 0.00 | 0.00 | ||
| 20260505165249 | 11 | 270 | 11.3 | 6.4 | 0.00 | 0.00 | 0.00 | ||
| 20260505163750 | 12 | 240 | 11.3 | 8.0 | 0.00 | 0.00 | 0.00 | ||
| 20260505162252 | 14 | 325 | 11.3 | 8.0 | 0.00 | 0.00 | 0.00 | ||
| 20260505160752 | 15 | 257 | 11.3 | 8.0 | 0.00 | 0.00 | 0.00 | ||
| 20260505152255 | 15 | 253 | 14.5 | 8.0 | 0.00 | 0.00 | 0.00 | ||
| 20260505150756 | 15 | 271 | 16.1 | 14.5 | 0.00 | 0.00 | 0.00 | ||
| 20260505122308 | 9 | 274 | 1.6 | 1.6 | 0.00 | 0.00 | 0.00 | ||
| 20260505120809 | 10 | 277 | 4.8 | 4.8 | 0.00 | 0.00 | 0.00 | ||
| 20260505115310 | 11 | 283 | 3.2 | 4.8 | 0.00 | 0.00 | 0.00 | ||
| 20260505112313 | 10 | 297 | 3.2 | 4.8 | 0.00 | 0.00 | 0.00 | ||
| 20260505110813 | 10 | 231 | 3.2 | 3.2 | 0.00 | 0.00 | 0.00 | ||
| 20260505100817 | 11 | 260 | 0.0 | 0.0 | 0.00 | 0.00 | 0.00 | ||
| 20260505092323 | 13 | 332 | 6.4 | 4.8 | 0.00 | 0.00 | 0.00 | ||
| 20260505085323 | 13 | 256 | 3.2 | 1.6 | 0.00 | 0.00 | 0.00 | ||
| 20260505083824 | 13 | 262 | 12.9 | 12.9 | 0.00 | 0.00 | 0.00 | ||
| 20260505082325 | 13 | 259 | 9.7 | 17.7 | 0.00 | 0.00 | 0.00 | ||
| 20260505080825 | 14 | 274 | 9.7 | 6.4 | 0.00 | 0.00 | 0.00 | ||
| 20260505075326 | 13 | 267 | 8.0 | 11.3 | 0.00 | 0.00 | 0.00 | ||
| 20260505073827 | 15 | 271 | 11.3 | 8.0 | 0.00 | 0.00 | 0.00 | ||
| 20260505072328 | 15 | 280 | 9.7 | 6.4 | 0.00 | 0.00 | 0.00 | ||
| 20260505070829 | 15 | 269 | 8.0 | 12.9 | 0.00 | 0.00 | 0.00 | ||
| 20260505065329 | 15 | 267 | 3.2 | 8.0 | 0.00 | 0.00 | 0.00 | ||
| 20260505063830 | 15 | 273 | 6.4 | 9.7 | 0.00 | 0.00 | 0.00 | ||
| 20260505062331 | 15 | 278 | 9.7 | 9.7 | 0.00 | 0.00 | 0.00 | ||
| 20260505060832 | 15 | 239 | 4.8 | 1.6 | 0.00 | 0.00 | 0.00 | ||
| 20260505055332 | 16 | 255 | 8.0 | 6.4 | 0.00 | 0.00 | 0.00 | ||
| 20260505053833 | 16 | 273 | 11.3 | 6.4 | 0.00 | 0.00 | 0.00 | ||
| 20260505052334 | 16 | 245 | 12.9 | 11.3 | 0.00 | 0.00 | 0.00 | ||
| 20260505050837 | 16 | 291 | 12.9 | 12.9 | 0.00 | 0.00 | 0.00 | ||
| 20260505040838 | 17 | 283 | 8.0 | 8.0 | 0.00 | 0.00 | 0.00 | ||
| 20260505035339 | 18 | 342 | 9.7 | 8.0 | 0.00 | 0.00 | 0.00 | ||
| 20260505033839 | 18 | 316 | 6.4 | 9.7 | 0.00 | 0.00 | 0.00 | ||
| 20260505032340 | 19 | 270 | 9.7 | 11.3 | 0.00 | 0.00 | 0.00 | ||
| 20260505030841 | 18 | 256 | 8.0 | 6.4 | 0.00 | 0.00 | 0.00 | ||
| 20260505023842 | 18 | 298 | 1.6 | 0.0 | 0.00 | 0.00 | 0.00 | ||
| 20260505022343 | 18 | 245 | 6.4 | 4.8 | 0.00 | 0.00 | 0.00 | ||
| 20260505020843 | 18 | 314 | 9.7 | 8.0 | 0.00 | 0.00 | 0.00 | ||
| 20260505015344 | 18 | 300 | 6.4 | 6.4 | 0.00 | 0.00 | 0.00 | ||
| 20260505013845 | 18 | 260 | 8.0 | 6.4 | 0.00 | 0.00 | 0.00 | ||
| 20260505012345 | 18 | 309 | 9.7 | 12.9 | 0.00 | 0.00 | 0.00 | ||
| 20260505010846 | 20 | 295 | 9.7 | 11.3 | 0.00 | 0.00 | 0.00 | ||
| 20260505005346 | 20 | 298 | 11.3 | 14.5 | 0.00 | 0.00 | 0.00 | ||
| 20260505003847 | 21 | 330 | 14.5 | 9.7 | 0.00 | 0.00 | 0.00 | ||
| 20260505002347 | 21 | 293 | 14.5 | 16.1 | 0.00 | 0.00 | 0.00 | ||
| 20260505000848 | 22 | 291 | 12.9 | 8.0 | 0.00 | 0.00 | 0.00 | ||
| 20260504235348 | 21 | 287 | 14.5 | 20.9 | 0.00 | 0.00 | 0.00 | ||
| 20260504233849 | 22 | 325 | 11.3 | 6.4 | 0.00 | 0.00 | 0.00 | ||
| 20260504232349 | 23 | 318 | 12.9 | 12.9 | 0.00 | 0.00 | 0.00 | ||
| 20260504230850 | 22 | 274 | 9.7 | 20.9 | 0.00 | 0.00 | 0.00 | ||
| 20260504225350 | 23 | 304 | 16.1 | 11.3 | 0.00 | 0.00 | 0.00 | ||
| 20260504223851 | 24 | 305 | 11.3 | 3.2 | 0.00 | 0.00 | 0.00 | ||
| 20260504222351 | 22 | 314 | 16.1 | 16.1 | 0.00 | 0.00 | 0.00 | ||
| 20260504220851 | 23 | 284 | 14.5 | 12.9 | 0.00 | 0.00 | 0.00 | ||
| 20260504215352 | 23 | 285 | 11.3 | 11.3 | 0.00 | 0.00 | 0.00 | ||
| 20260504213852 | 23 | 280 | 16.1 | 19.3 | 0.00 | 0.00 | 0.00 | ||
| 20260504212353 | 22 | 328 | 12.9 | 8.0 | 0.00 | 0.00 | 0.00 | ||
| 20260504210853 | 22 | 290 | 14.5 | 16.1 | 0.00 | 0.00 | 0.00 | ||
| 20260504205354 | 22 | 287 | 9.7 | 8.0 | 0.00 | 0.00 | 0.00 | ||
| 20260504202357 | 22 | 280 | 11.3 | 16.1 | 0.00 | 0.00 | 0.00 |